EW6819 Weather Reports


time (UTC)temp
C
wind
direction
speed
KPH
gust
KPH
rain 1hr
cm
rain 24hr
cm
rain mn
cm
humidity
%
barometer
mb
20260504045503 10 201 9.7 22.5 0.00 0.00 0.00 39 1008.6
20260504045003 10 191 8.0 22.5 0.00 0.00 0.00 39 1008.6
20260504044504 10 185 8.0 22.5 0.00 0.00 0.00 39 1008.6
20260504044003 10 184 8.0 16.1 0.00 0.00 0.00 39 1008.6
20260504043503 9 175 6.4 14.5 0.00 0.00 0.00 40 1008.7
20260504043003 9 168 8.0 22.5 0.00 0.00 0.00 40 1008.8
20260504042503 10 173 6.4 22.5 0.00 0.00 0.00 40 1008.6
20260504042003 10 180 6.4 17.7 0.00 0.00 0.00 39 1008.8
20260504041503 10 177 6.4 17.7 0.00 0.00 0.00 39 1008.8
20260504041003 10 178 6.4 17.7 0.00 0.00 0.00 39 1008.8
20260504040713 10 181 6.4 12.9 0.00 0.00 0.00 39 1008.8
20260504040003 10 177 6.4 12.9 0.00 0.00 0.00 39 1008.9
20260504035503 10 173 6.4 16.1 0.00 0.00 0.00 39 1008.8
20260504035003 10 179 4.8 16.1 0.00 0.00 0.00 39 1008.8
20260504034503 10 182 4.8 11.3 0.00 0.00 0.00 38 1008.9
20260504034003 10 180 6.4 11.3 0.00 0.00 0.00 39 1008.8
20260504033503 10 187 6.4 19.3 0.00 0.00 0.00 38 1008.8
20260504033003 10 184 6.4 19.3 0.00 0.00 0.00 38 1008.9
20260504032503 10 180 6.4 16.1 0.00 0.00 0.00 38 1008.9
20260504032214 10 186 6.4 12.9 0.00 0.00 0.00 38 1008.8
20260504031503 10 192 6.4 11.3 0.00 0.00 0.00 38 1009.0
20260504031003 10 205 6.4 17.7 0.00 0.00 0.00 38 1008.9
20260504030503 10 201 8.0 17.7 0.00 0.00 0.00 38 1009.0
20260504030003 11 188 8.0 17.7 0.00 0.00 0.00 38 1009.0
20260504025503 11 191 9.7 24.1 0.00 0.00 0.00 38 1008.9
20260504025003 11 190 8.0 24.1 0.00 0.00 0.00 38 1009.0
20260504024503 11 191 8.0 20.9 0.00 0.00 0.00 37 1009.0
20260504024003 11 193 9.7 20.9 0.00 0.00 0.00 37 1009.1
20260504023713 11 195 8.0 20.9 0.00 0.00 0.00 38 1009.2
20260504023003 11 201 8.0 24.1 0.00 0.00 0.00 37 1009.2
20260504022503 11 204 8.0 24.1 0.00 0.00 0.00 37 1009.2
20260504022003 11 218 8.0 16.1 0.00 0.00 0.00 37 1009.2
20260504021713 11 223 8.0 16.1 0.00 0.00 0.00 37 1009.3
20260504021003 11 232 9.7 27.4 0.00 0.00 0.00 35 1009.4
20260504020503 11 237 9.7 27.4 0.00 0.00 0.00 35 1009.4
20260504020003 11 220 9.7 25.7 0.00 0.00 0.00 35 1009.3
20260504015503 11 208 9.7 22.5 0.00 0.00 0.00 34 1009.2
20260504015003 11 214 6.4 25.7 0.00 0.00 0.00 35 1009.2
20260504014503 11 235 4.8 25.7 0.00 0.00 0.00 36 1009.3
20260504014003 11 245 6.4 19.3 0.00 0.00 0.00 36 1009.2
20260504013503 11 248 6.4 19.3 0.00 0.00 0.00 36 1009.3
20260504013003 11 247 6.4 16.1 0.00 0.00 0.00 36 1009.3
20260504012503 11 234 4.8 14.5 0.00 0.00 0.00 36 1009.4
20260504012003 11 233 6.4 29.0 0.00 0.00 0.00 36 1009.2
20260504011503 11 234 8.0 29.0 0.00 0.00 0.00 36 1009.2
20260504011003 11 238 6.4 22.5 0.00 0.00 0.00 36 1009.2
20260504010503 11 238 6.4 20.9 0.00 0.00 0.00 36 1009.2
20260504010213 11 237 6.4 20.9 0.00 0.00 0.00 36 1009.2
20260504005503 11 225 6.4 33.8 0.00 0.00 0.00 35 1009.2
20260504005003 11 238 8.0 33.8 0.00 0.00 0.00 34 1009.4
20260504004503 11 247 8.0 25.7 0.00 0.00 0.00 32 1009.5
20260504004003 11 244 8.0 30.6 0.00 0.00 0.00 33 1009.4
20260504003503 11 243 9.7 30.6 0.00 0.00 0.00 31 1009.1
20260504003213 11 225 9.7 22.5 0.00 0.00 0.00 31 1009.1
20260504002714 11 219 8.0 37.0 0.00 0.00 0.00 31 1009.1
20260504002003 11 227 8.0 37.0 0.00 0.00 0.00 31 1008.9
20260504001503 11 226 9.7 24.1 0.00 0.00 0.00 32 1009.0
20260504001003 11 216 11.3 37.0 0.00 0.00 0.00 31 1009.0
20260504000503 11 217 8.0 37.0 0.00 0.00 0.00 32 1009.1
20260504000003 11 243 8.0 25.7 0.00 0.00 0.00 31 1009.0
20260503235503 11 246 9.7 35.4 0.00 0.00 0.00 31 1009.0
20260503235003 11 256 12.9 35.4 0.00 0.00 0.00 30 1009.0
20260503234714 11 257 11.3 35.4 0.00 0.00 0.00 30 1008.9
20260503234003 11 244 12.9 43.5 0.00 0.00 0.00 29 1009.0
20260503233503 12 248 9.7 43.5 0.00 0.00 0.00 29 1008.9
20260503233003 12 240 6.4 24.1 0.00 0.00 0.00 29 1009.0
20260503232503 12 262 9.7 24.1 0.00 0.00 0.00 28 1008.8
20260503232212 12 263 8.0 24.1 0.00 0.00 0.00 27 1008.8
20260503231503 12 252 9.7 32.2 0.00 0.00 0.00 28 1008.7
20260503231003 12 246 8.0 32.2 0.00 0.00 0.00 28 1008.6
20260503230503 12 230 6.4 19.3 0.00 0.00 0.00 28 1008.5
20260503230003 12 227 6.4 19.3 0.00 0.00 0.00 28 1008.6
20260503225503 12 217 6.4 20.9 0.00 0.00 0.00 28 1008.5
20260503225003 12 210 4.8 20.9 0.00 0.00 0.00 28 1008.5
20260503224503 12 239 4.8 12.9 0.00 0.00 0.00 29 1008.7
20260503224212 12 243 4.8 12.9 0.00 0.00 0.00 27 1008.5
20260503223713 12 253 6.4 22.5 0.00 0.00 0.00 26 1008.6
20260503223003 12 253 14.5 45.1 0.00 0.00 0.00 26 1008.4
20260503222503 12 260 9.7 37.0 0.00 0.00 0.00 25 1008.6
20260503222003 12 256 6.4 27.4 0.00 0.00 0.00 25 1008.5
20260503221713 12 248 6.4 27.4 0.00 0.00 0.00 26 1008.5
20260503221214 12 237 9.7 33.8 0.00 0.00 0.00 26 1008.6
20260503220713 12 243 8.0 33.8 0.00 0.00 0.00 27 1008.6
20260503220003 12 259 8.0 24.1 0.00 0.00 0.00 28 1008.4
20260503215503 12 252 9.7 29.0 0.00 0.00 0.00 27 1008.4
20260503215003 12 246 9.7 30.6 0.00 0.00 0.00 27 1008.3
20260503214503 13 228 6.4 30.6 0.00 0.00 0.00 29 1008.3
20260503214003 12 220 4.8 17.7 0.00 0.00 0.00 28 1008.3
20260503213713 12 305 4.8 20.9 0.00 0.00 0.00 29 1008.4
20260503213003 12 324 3.2 20.9 0.00 0.00 0.00 29 1008.3
20260503212503 12 276 3.2 11.3 0.00 0.00 0.00 32 1008.3
20260503212003 12 266 3.2 14.5 0.00 0.00 0.00 33 1008.4
20260503211503 12 249 4.8 14.5 0.00 0.00 0.00 30 1008.4
20260503211003 12 229 4.8 14.5 0.00 0.00 0.00 32 1008.3
20260503210503 12 205 4.8 17.7 0.00 0.00 0.00 31 1008.3
20260503210003 12 191 8.0 19.3 0.00 0.00 0.00 30 1008.4
20260503205713 12 186 8.0 19.3 0.00 0.00 0.00 31 1008.4
20260503205003 12 187 8.0 19.3 0.00 0.00 0.00 32 1008.3
20260503204503 12 205 6.4 17.7 0.00 0.00 0.00 30 1008.4
20260503204003 12 211 6.4 17.7 0.00 0.00 0.00 29 1008.5
20260503203503 12 236 6.4 19.3 0.00 0.00 0.00 31 1008.5
20260503203003 12 244 8.0 19.3 0.00 0.00 0.00 32 1008.6
20260503202714 12 259 8.0 20.9 0.00 0.00 0.00 31 1008.6
20260503202003 12 280 3.2 20.9 0.00 0.00 0.00 31 1008.8
20260503201503 12 235 4.8 25.7 0.00 0.00 0.00 32 1008.9
20260503201003 12 215 4.8 25.7 0.00 0.00 0.00 33 1008.9
20260503200503 12 152 3.2 12.9 0.00 0.00 0.00 30 1009.0
20260503200003 12 234 4.8 19.3 0.00 0.00 0.00 34 1009.0
20260503195503 11 257 9.7 29.0 0.00 0.00 0.00 32 1009.1
20260503195003 11 252 6.4 29.0 0.00 0.00 0.00 33 1009.2
20260503194504 12 150 4.8 14.5 0.00 0.00 0.00 34 1009.4
20260503194003 11 190 8.0 19.3 0.00 0.00 0.00 32 1009.4
20260503193503 11 201 9.7 27.4 0.00 0.00 0.00 33 1009.5
20260503193003 12 223 9.7 27.4 0.00 0.00 0.00 30 1009.5
20260503192503 11 213 8.0 25.7 0.00 0.00 0.00 32 1009.6
20260503192213 11 196 8.0 24.1 0.00 0.00 0.00 35 1009.5
20260503191714 11 228 4.8 14.5 0.00 0.00 0.00 31 1009.7
20260503191003 11 241 8.0 20.9 0.00 0.00 0.00 32 1009.9
20260503190503 11 242 9.7 27.4 0.00 0.00 0.00 32 1010.1
20260503190003 11 239 8.0 27.4 0.00 0.00 0.00 33 1010.1
20260503185503 11 225 8.0 25.7 0.00 0.00 0.00 35 1010.0
20260503185003 11 245 11.3 27.4 0.00 0.00 0.00 33 1010.2
20260503184503 11 257 11.3 30.6 0.00 0.00 0.00 32 1010.3
20260503184003 11 249 9.7 30.6 0.00 0.00 0.00 36 1010.4
20260503183503 11 246 11.3 27.4 0.00 0.00 0.00 32 1010.7
20260503183003 10 249 8.0 29.0 0.00 0.00 0.00 34 1010.6
20260503182503 11 253 8.0 29.0 0.00 0.00 0.00 29 1010.6
20260503182003 11 257 8.0 24.1 0.00 0.00 0.00 32 1010.6
20260503181504 11 254 8.0 25.7 0.00 0.00 0.00 36 1010.4
20260503181003 11 251 11.3 29.0 0.00 0.00 0.00 33 1010.5
20260503180503 11 247 9.7 29.0 0.00 0.00 0.00 32 1010.7
20260503180003 11 242 11.3 29.0 0.00 0.00 0.00 34 1010.6
20260503175503 11 248 16.1 40.2 0.00 0.00 0.00 34 1010.6
20260503175003 11 254 14.5 43.5 0.00 0.00 0.00 32 1010.7
20260503174503 11 262 8.0 43.5 0.00 0.00 0.00 29 1010.7
20260503174003 11 270 6.4 25.7 0.00 0.00 0.00 33 1010.7
20260503173503 10 268 11.3 37.0 0.00 0.00 0.00 33 1010.7
20260503173214 10 263 12.9 37.0 0.00 0.00 0.00 33 1010.7
20260503172503 11 265 8.0 35.4 0.00 0.00 0.00 30 1010.9
20260503172003 11 300 4.8 22.5 0.00 0.00 0.00 34 1010.8
20260503171713 11 266 4.8 17.7 0.00 0.00 0.00 35 1010.8
20260503171003 11 236 11.3 27.4 0.00 0.00 0.00 34 1010.8
20260503170503 11 240 9.7 27.4 0.00 0.00 0.00 33 1011.0
20260503151003 7 262 6.4 17.7 0.00 0.00 0.00 38 1011.9
20260503150503 7 268 8.0 20.9 0.00 0.00 0.00 40 1012.0
20260503131212 6 252 6.4 19.3 0.00 0.00 0.00 45 1012.7
20260503130714 5 269 6.4 17.7 0.00 0.00 0.00 43 1012.7
20260503120214 3 267 4.8 16.1 0.00 0.00 0.00 47 1012.8
20260503110503 1 247 4.8 11.3 0.00 0.00 0.00 59 1012.4
20260503090503 0 248 1.6 4.8 0.00 0.00 0.00 62 1011.9
20260503081503 1 260 4.8 17.7 0.00 0.00 0.00 62 1012.1
20260503081003 1 253 4.8 14.5 0.00 0.00 0.00 62 1012.2
20260503080714 1 252 4.8 14.5 0.00 0.00 0.00 62 1012.1
20260503072503 2 261 8.0 22.5 0.00 0.00 0.00 61 1012.0
20260503072003 2 259 6.4 17.7 0.00 0.00 0.00 60 1012.0
20260503071503 2 256 4.8 17.7 0.00 0.00 0.00 60 1012.0
20260503071003 2 255 6.4 17.7 0.00 0.00 0.00 60 1012.0
20260503070503 2 255 4.8 20.9 0.00 0.00 0.00 60 1012.0
20260503055003 2 84 0.0 6.4 0.00 0.00 0.00 59 1012.2
20260503054503 2 122 1.6 6.4 0.00 0.00 0.00 59 1012.2
20260503054003 2 135 3.2 8.0 0.00 0.00 0.00 59 1012.2
20260503053713 2 154 3.2 12.9 0.00 0.00 0.00 59 1012.3
20260503053003 2 210 3.2 12.9 0.00 0.00 0.00 58 1012.2
20260503052503 2 229 3.2 11.3 0.00 0.00 0.00 59 1012.3
20260503052003 2 193 3.2 6.4 0.00 0.00 0.00 59 1012.5
20260503051503 2 195 3.2 9.7 0.00 0.00 0.00 59 1012.5
20260503051003 2 198 3.2 9.7 0.00 0.00 0.00 59 1012.6
20260503050503 2 203 3.2 9.7 0.00 0.00 0.00 59 1012.8
20260503050003 2 220 3.2 12.9 0.00 0.00 0.00 59 1012.9